Weather History for Taos, NM

Change the Weather History Date:

Thursday, August 15, 2013

  Actual Average Record
Temperature  
Mean Temperature 65 °F -  
Max Temperature 84 °F 79 °F 89 °F (2002)
Min Temperature 46 °F 47 °F 41 °F (1997)
Growing Degree Days 15 (Base 50)    
Moisture  
Dew Point 38 °F    
Average Humidity 44    
Maximum Humidity 71    
Minimum Humidity 12    
Precipitation  
Precipitation 0.00 in - - ()
Sea Level Pressure  
Sea Level Pressure 30.34 in    
Wind  
Wind Speed 8 mph (NNE)    
Max Wind Speed 18 mph    
Max Gust Speed 33 mph    
Visibility 10 miles    
Events      
Averages and records for this station are not official NWS values.
T = Trace of Precipitation, MM = Missing Value Source: NWS Daily Summary

Daily Weather History Graph

Daily Weather History Graph

Search for Another Location

Airport:

Trip Planner

Search our weather history database for the weather conditions in past years. The results will help you decide how hot, cold, wet, or windy it might be!

Date:

Astronomy

Aug. 15, 2013 Rise Set
Actual Time 6:20 AM MDT 7:52 PM MDT
Civil Twilight 5:53 AM MDT 8:20 PM MDT
Nautical Twilight 5:20 AM MDT 8:53 PM MDT
Astronomical Twilight 4:45 AM MDT 9:27 PM MDT
Moon 3:09 PM MDT (8/15) 12:34 AM MDT (8/15)
Length of Visible Light 14h 26m
Length of Day
13h 32m
Waxing Gibbous, 65% of the Moon is Illuminated
Aug 15
Waxing Gibbous
Aug 20
Full
Aug 28
Last Quarter
Sep 5
New
Sep 12
First Quarter

Hourly Weather History & Observations

Time (MDT) Temp. Windchill Dew Point Humidity Pressure Visibility Wind Dir Wind Speed Gust Speed Precip Events Conditions
12:15 AM 64.4 °F - 44.6 °F 49% 30.35 in 10.0 mi ESE 9.2 mph - N/A   Partly Cloudy
12:35 AM 62.6 °F - 42.8 °F 48% 30.36 in 10.0 mi ESE 12.7 mph - N/A   Scattered Clouds
12:55 AM 62.6 °F - 42.8 °F 48% 30.36 in 10.0 mi ESE 12.7 mph - N/A   Scattered Clouds
1:15 AM 62.6 °F - 42.8 °F 48% 30.35 in 10.0 mi ESE 10.4 mph - N/A   Partly Cloudy
1:35 AM 62.6 °F - 44.6 °F 52% 30.35 in 10.0 mi ESE 13.8 mph - N/A   Mostly Cloudy
1:55 AM 60.8 °F - 44.6 °F 55% 30.35 in 10.0 mi ESE 11.5 mph - N/A   Scattered Clouds
2:15 AM 60.8 °F - 44.6 °F 55% 30.36 in 10.0 mi East 6.9 mph - N/A   Clear
2:35 AM 59.0 °F - 44.6 °F 59% 30.36 in 10.0 mi East 8.1 mph - N/A   Clear
2:55 AM 59.0 °F - 44.6 °F 59% 30.35 in 10.0 mi East 6.9 mph - N/A   Clear
3:15 AM 57.2 °F - 44.6 °F 63% 30.36 in 10.0 mi ESE 5.8 mph - N/A   Clear
3:35 AM 57.2 °F - 44.6 °F 63% 30.36 in 10.0 mi ESE 5.8 mph - N/A   Clear
3:55 AM 55.4 °F - 42.8 °F 63% 30.36 in 10.0 mi North 4.6 mph - N/A   Clear
4:15 AM 53.6 °F - 41.0 °F 62% 30.36 in 10.0 mi North 3.5 mph - N/A   Mostly Cloudy
4:35 AM 51.8 °F - 39.2 °F 62% 30.36 in 10.0 mi North 5.8 mph - N/A   Scattered Clouds
4:55 AM 51.8 °F - 39.2 °F 62% 30.36 in 10.0 mi North 3.5 mph - N/A   Clear
5:15 AM 51.8 °F - 39.2 °F 62% 30.36 in 10.0 mi NE 4.6 mph - N/A   Clear
5:35 AM 51.8 °F - 39.2 °F 62% 30.36 in 10.0 mi Calm Calm - N/A   Clear
5:55 AM 53.6 °F - 39.2 °F 58% 30.36 in 10.0 mi NNE 4.6 mph - N/A   Clear
6:15 AM 51.8 °F - 39.2 °F 62% 30.37 in 10.0 mi Calm Calm - N/A   Clear
6:35 AM 46.4 °F 42.9 °F 37.4 °F 71% 30.38 in 10.0 mi NNW 6.9 mph - N/A   Clear
6:55 AM 48.2 °F - 39.2 °F 71% 30.38 in 10.0 mi NNE 6.9 mph - N/A   Clear
7:15 AM 51.8 °F - 41.0 °F 67% 30.38 in 10.0 mi North 3.5 mph - N/A   Clear
7:35 AM 55.4 °F - 42.8 °F 63% 30.39 in 10.0 mi North 4.6 mph - N/A   Clear
7:55 AM 57.2 °F - 42.8 °F 59% 30.39 in 10.0 mi North 3.5 mph - N/A   Clear
8:15 AM 59.0 °F - 42.8 °F 55% 30.39 in 10.0 mi Calm Calm - N/A   Clear
8:35 AM 60.8 °F - 44.6 °F 55% 30.40 in 10.0 mi NW 3.5 mph - N/A   Clear
8:55 AM 62.6 °F - 44.6 °F 52% 30.40 in 10.0 mi Calm Calm - N/A   Clear
9:15 AM 64.4 °F - 44.6 °F 49% 30.39 in 10.0 mi Calm Calm - N/A   Clear
9:35 AM 66.2 °F - 46.4 °F 49% 30.39 in 10.0 mi Calm Calm - N/A   Clear
9:55 AM 69.8 °F - 46.4 °F 43% 30.39 in 10.0 mi Calm Calm - N/A   Clear
10:15 AM 69.8 °F - 44.6 °F 40% 30.39 in 10.0 mi Calm Calm - N/A   Clear
10:35 AM - - - N/A% 30.39 in 10.0 mi SSW 3.5 mph - N/A   Clear
10:55 AM - - - N/A% 30.38 in 10.0 mi WNW 5.8 mph - N/A   Clear
11:15 AM - - - N/A% 30.38 in 10.0 mi WSW 4.6 mph - N/A   Clear
11:35 AM - - - N/A% 30.38 in 10.0 mi SE 4.6 mph - N/A   Clear
11:55 AM - - - N/A% 30.37 in 10.0 mi Calm Calm - N/A   Clear
12:15 PM - - - N/A% 30.36 in 10.0 mi WNW 3.5 mph - N/A   Clear
12:35 PM - - - N/A% 30.35 in 10.0 mi SW 4.6 mph - N/A   Clear
12:55 PM - - - N/A% 30.33 in 10.0 mi NNW 10.4 mph - N/A   Partly Cloudy
1:15 PM - - - N/A% 30.33 in 10.0 mi NNW 10.4 mph - N/A   Partly Cloudy
1:35 PM - - - N/A% 30.33 in 10.0 mi NNW 9.2 mph 18.4 mph N/A   Clear
1:55 PM - - - N/A% 30.32 in 10.0 mi NNE 18.4 mph 24.2 mph N/A   Clear
2:15 PM - - - N/A% 30.31 in 10.0 mi NNW 8.1 mph 24.2 mph N/A   Clear
2:35 PM - - - N/A% 30.31 in 8.0 mi NW 15.0 mph 20.7 mph N/A   Clear
2:55 PM - - - N/A% 30.30 in 10.0 mi East 8.1 mph - N/A   Clear
3:15 PM 84.2 °F - 26.6 °F 12% 30.30 in 10.0 mi North 10.4 mph 17.3 mph N/A   Clear
3:35 PM 84.2 °F - 26.6 °F 12% 30.30 in 10.0 mi NW 11.5 mph - N/A   Clear
3:55 PM 82.4 °F - 24.8 °F 12% 30.29 in 10.0 mi NNW 12.7 mph 23.0 mph N/A   Clear
4:15 PM 84.2 °F - 26.6 °F 12% 30.29 in 10.0 mi NW 6.9 mph 18.4 mph N/A   Clear
4:35 PM 84.2 °F - 30.2 °F 14% 30.29 in 10.0 mi WNW 17.3 mph 25.3 mph N/A   Partly Cloudy
4:55 PM - - - N/A% 30.28 in 10.0 mi WNW 16.1 mph 19.6 mph N/A   Clear
5:15 PM - - - N/A% 30.28 in 10.0 mi NW 9.2 mph 18.4 mph N/A   Clear
5:35 PM - - - N/A% 30.28 in 10.0 mi WNW 6.9 mph - N/A   Clear
5:55 PM - - - N/A% 30.28 in 10.0 mi NNW 10.4 mph - N/A   Partly Cloudy
6:15 PM - - - N/A% 30.28 in 10.0 mi WNW 5.8 mph - N/A   Clear
6:35 PM - - - N/A% 30.28 in 10.0 mi NW 4.6 mph - N/A   Clear
6:55 PM - - - N/A% 30.28 in 10.0 mi North 8.1 mph - N/A   Partly Cloudy
7:15 PM - - - N/A% 30.29 in 10.0 mi North 10.4 mph 18.4 mph N/A   Partly Cloudy
7:35 PM 78.8 °F - 32.0 °F 18% 30.30 in 10.0 mi North 16.1 mph - N/A   Clear
7:55 PM 78.8 °F - 30.2 °F 17% 30.31 in 10.0 mi ESE 8.1 mph 33.4 mph N/A   Mostly Cloudy
8:15 PM 78.8 °F - 30.2 °F 17% 30.31 in 10.0 mi ENE 10.4 mph - N/A   Scattered Clouds
8:35 PM 75.2 °F - 30.2 °F 19% 30.31 in 10.0 mi NE 8.1 mph - N/A   Clear
8:55 PM 75.2 °F - 28.4 °F 18% 30.31 in 10.0 mi ENE 8.1 mph - N/A   Clear
9:15 PM 73.4 °F - 30.2 °F 20% 30.32 in 10.0 mi ENE 11.5 mph - N/A   Clear
9:35 PM 71.6 °F - 32.0 °F 23% 30.33 in 10.0 mi ENE 10.4 mph - N/A   Clear
9:55 PM 69.8 °F - 30.2 °F 23% 30.33 in 10.0 mi East 10.4 mph - N/A   Clear
10:15 PM 68.0 °F - 30.2 °F 24% 30.34 in 10.0 mi SE 6.9 mph - N/A   Clear
11:55 PM 66.2 °F - 35.6 °F 32% 30.35 in 10.0 mi WSW 5.8 mph - N/A   Partly Cloudy